EW2887 Weather Reports


Display with metric or nautical units.
time (UTC)temp
F
wind
direction
speed
MPH
gust
MPH
rain 1hr
in
rain 24hr
in
rain mn
in
humidity
%
barometer
mb
20260903201544 97 242 4.0 6.0 0.00 0.11 0.00 25 1004.4
20260903200048 96 209 3.0 11.0 0.00 0.11 0.00 25 1004.6
20260903194547 97 360 8.0 15.0 0.00 0.11 0.00 25 1004.7
20260903193039 97 209 10.0 15.0 0.00 0.11 0.00 26 1004.9
20260903191552 97 209 4.0 13.0 0.00 0.11 0.00 26 1005.2
20260903190034 97 165 5.0 17.0 0.00 0.11 0.00 24 1005.4
20260903184532 100 257 4.0 12.0 0.00 0.11 0.00 24 1005.8
20260903183042 100 232 5.0 13.0 0.00 0.11 0.00 24 1006.0
20260903181528 98 300 5.0 21.0 0.00 0.11 0.00 26 1006.2
20260903180034 98 234 11.0 18.0 0.00 0.11 0.00 27 1006.3
20260903174525 96 240 11.0 17.0 0.00 0.11 0.00 29 1006.5
20260903173017 94 238 11.0 19.0 0.00 0.11 0.00 30 1006.7
20260903171520 93 221 14.0 25.0 0.00 0.11 0.00 32 1006.8
20260903170015 93 216 13.0 21.0 0.00 0.11 0.00 33 1006.9
20260903164511 91 237 18.0 23.0 0.00 0.11 0.00 33 1007.0
20260903163014 91 216 15.0 24.0 0.00 0.11 0.00 35 1007.1
20260903161507 89 236 15.0 24.0 0.00 0.11 0.00 36 1007.1
20260903160100 88 217 18.0 25.0 0.00 0.11 0.00 37 1007.2
20260903154557 87 217 16.0 24.0 0.00 0.11 0.00 39 1007.1
20260903153152 86 232 15.0 22.0 0.00 0.11 0.00 41 1007.2
20260903151549 84 231 17.0 24.0 0.00 0.11 0.00 43 1007.2
20260903150044 81 216 17.0 23.0 0.00 0.11 0.00 47 1007.4
20260903144541 79 232 17.0 22.0 0.00 0.11 0.00 49 1007.6
20260903143041 76 243 10.0 18.0 0.00 0.11 0.00 53 1007.8
20260903141535 74 360 14.0 18.0 0.00 0.11 0.00 55 1007.8
20260903140033 71 190 13.0 17.0 0.00 0.11 0.00 59 1007.6
20260903134535 70 207 13.0 18.0 0.00 0.11 0.00 58 1007.4
20260903133029 70 196 13.0 18.0 0.00 0.11 0.00 58 1007.5
20260903131529 70 196 12.0 17.0 0.00 0.11 0.00 59 1007.2
20260903130026 69 202 13.0 17.0 0.00 0.11 0.00 59 1007.2
20260903124546 69 202 13.0 17.0 0.00 0.11 0.00 59 1007.1
20260903123024 70 192 14.0 20.0 0.00 0.11 0.00 58 1006.9
20260903121539 70 175 12.0 18.0 0.00 0.11 0.00 58 1006.7
20260903120025 69 178 11.0 17.0 0.00 0.11 0.00 60 1006.8
20260903114522 69 184 11.0 16.0 0.00 0.11 0.00 59 1006.7
20260903113020 70 188 13.0 18.0 0.00 0.11 0.00 57 1006.6
20260903111517 70 197 13.0 15.0 0.00 0.11 0.00 58 1006.6
20260903110016 70 194 11.0 17.0 0.00 0.11 0.00 58 1006.7
20260903104511 71 182 11.0 16.0 0.00 0.11 0.00 56 1006.7
20260903103009 72 190 12.0 19.0 0.00 0.11 0.00 54 1006.7
20260903101506 72 161 11.0 19.0 0.00 0.11 0.00 54 1006.8
20260903100018 71 159 10.0 17.0 0.00 0.11 0.00 56 1006.8
20260903094503 71 177 10.0 17.0 0.00 0.11 0.00 56 1006.9
20260903093104 72 171 11.0 14.0 0.00 0.11 0.00 55 1007.0
20260903091605 72 188 7.0 14.0 0.00 0.11 0.00 56 1007.0
20260903090058 72 207 10.0 15.0 0.00 0.11 0.00 56 1006.9
20260903084555 73 156 8.0 14.0 0.00 0.11 0.00 55 1007.0
20260903083058 73 189 8.0 16.0 0.00 0.11 0.00 55 1007.1
20260903081552 74 175 10.0 18.0 0.00 0.11 0.00 53 1007.0
20260903080049 74 190 7.0 15.0 0.00 0.11 0.00 53 1007.0
20260903074547 74 183 10.0 15.0 0.00 0.11 0.00 53 1007.0
20260903073056 75 157 9.0 16.0 0.00 0.11 0.00 51 1007.0
20260903071545 75 144 6.0 10.0 0.00 0.11 0.00 52 1007.0
20260903070044 74 174 7.0 11.0 0.00 0.11 0.00 54 1006.9
20260903064552 74 187 8.0 12.0 0.00 0.11 0.00 56 1006.9
20260903063040 75 194 9.0 16.0 0.00 0.11 0.00 55 1006.9
20260903061539 75 202 9.0 16.0 0.00 0.11 0.00 53 1006.8
20260903060036 76 206 10.0 14.0 0.00 0.11 0.00 53 1006.9
20260903054533 77 174 8.0 13.0 0.00 0.11 0.00 50 1006.8
20260903053029 78 182 9.0 13.0 0.00 0.11 0.00 49 1006.8
20260903051528 77 182 5.0 10.0 0.00 0.11 0.00 50 1006.8
20260903050024 78 165 6.0 13.0 0.00 0.11 0.00 50 1006.8
20260903044524 79 150 7.0 12.0 0.00 0.11 0.11 49 1006.8
20260903043023 79 178 6.0 12.0 0.00 0.11 0.11 49 1006.8
20260903041523 79 166 5.0 11.0 0.00 0.11 0.11 48 1006.7
20260903040025 80 188 5.0 11.0 0.00 0.11 0.11 48 1006.7
20260903034522 80 147 7.0 14.0 0.00 0.11 0.11 48 1006.7
20260903033021 80 154 7.0 13.0 0.00 0.11 0.11 48 1006.6
20260903031520 80 185 7.0 14.0 0.00 0.11 0.11 49 1006.4
20260903030028 79 138 6.0 14.0 0.00 0.11 0.11 48 1006.3
20260903024519 79 148 6.0 11.0 0.00 0.11 0.11 49 1006.1
20260903023020 79 148 5.0 10.0 0.00 0.11 0.11 48 1005.8
20260903021518 79 167 5.0 10.0 0.00 0.11 0.11 48 1005.8
20260903020034 79 151 6.0 10.0 0.03 0.11 0.11 50 1005.7
20260903014517 79 145 6.0 11.0 0.11 0.11 0.11 53 1005.5
20260903013018 80 146 8.0 17.0 0.11 0.11 0.11 50 1005.6
20260903011515 82 128 13.0 22.0 0.11 0.11 0.11 43 1005.7
20260903010014 80 209 24.0 39.0 0.07 0.07 0.07 1006.6
20260903004513 85 191 5.0 6.0 0.00 0.00 0.00 42 1006.2
20260903003012 85 360 4.0 10.0 0.00 0.00 0.00 41 1006.1
20260903001511 86 123 9.0 15.0 0.00 0.00 0.00 41 1006.2
20260903000011 86 152 4.0 15.0 0.00 0.00 0.00 42 1006.3
20260902234510 87 147 12.0 18.0 0.00 0.00 0.00 40 1006.1
20260902233011 88 360 10.0 19.0 0.00 0.00 0.00 37 1006.0
20260902231509 89 167 10.0 18.0 0.00 0.00 0.00 37 1005.8
20260902230010 90 153 12.0 19.0 0.00 0.00 0.00 36 1005.6
20260902224508 91 172 10.0 19.0 0.00 0.00 0.00 36 1005.7
20260902223122 91 180 12.0 18.0 0.00 0.00 0.00 34 1005.8
20260902221505 91 360 8.0 19.0 0.00 0.00 0.00 36 1005.9
20260902220004 90 108 3.0 9.0 0.00 0.00 0.00 35 1006.2
20260902214504 93 315 3.0 11.0 0.00 0.00 0.00 36 1006.5
20260902213002 93 146 12.0 23.0 0.00 0.00 0.00 32 1006.2
20260902211502 93 163 11.0 20.0 0.00 0.00 0.00 34 1006.2
20260902210002 91 360 11.0 18.0 0.00 0.00 0.00 36 1006.1
20260902204635 90 360 12.0 21.0 0.00 0.00 0.00 38 1006.3
20260902203056 88 360 10.0 20.0 0.00 0.00 0.00 42 1006.9